Flag for United Kingdom Weather past 2 weeks in Bridlington, England, United Kingdom

Now
47 °F

Cool.


Feels Like: 43 °F
Forecast: 49 / 62 °F
Wind: 8 mph from Northwest

Location: Bridlington Mrsc

Current Time: Aug 23, 2014 at 5:24:15 AM

Latest Report: Aug 23, 2014 at 4:00 AM


Visibility: N/A

Pressure: 29.84 "Hg

Humidity: 86%

Dew point: 43 °F

Location of BridlingtonLocation

Historic Weather in Bridlington — Graph

°F

Bridlington temperature yesterday

Maximum temperature yesterday: 58 °F (at 2:00 PM)
Minimum temperature yesterday: 48 °F (at 4:00 AM)
Average temperature yesterday: 54 °F

Past Weeks' High & Low Weather Summary

 TemperatureHumidityPressure
High71 °F (Aug 9, 4:00 PM)97% (Aug 22, 5:00 AM)30.08 "Hg (Aug 22, 5:00 AM)
Low46 °F (Aug 20, 4:00 AM)43% (Aug 9, 4:00 PM)29.15 "Hg (Aug 10, 2:00 PM)
Average58 °F77%29.71 "Hg
* Reported Aug 8 3:00 AM — Aug 23 3:00 AM, Bridlington, Weather by CustomWeather, © 2014

Note: Actual official high and low records may vary slightly from our data, if they occured in-between our weather recording intervals... More about our weather records

Advertising

Bridlington weather history for previous 24 hours

 ConditionsComfort  
Time TempWeatherWind HumidityBarometerVisibility
3:00 AM
Aug 23
48 °FCool.9 mph84%29.85 "HgN/A
2:00 AM48 °FCool.7 mph84%29.85 "HgN/A
1:00 AM49 °FCool.7 mph81%29.85 "HgN/A
12:00 AM49 °FCool.7 mph81%29.85 "HgN/A
11:00 PM
Aug 22
51 °FCool.8 mph78%29.85 "HgN/A
10:00 PM53 °FCool.3 mph78%29.85 "HgN/A
9:00 PM55 °FCool.9 mph74%29.85 "HgN/A
8:00 PM54 °FCool.5 mph77%29.84 "HgN/A
7:00 PM56 °FCool.2 mph70%29.83 "HgN/A
6:00 PM57 °FCool.6 mph69%29.83 "HgN/A
5:00 PM56 °FCool.10 mph69%29.83 "HgN/A
4:00 PM56 °FCool.12 mph64%29.83 "HgN/A
3:00 PM58 °FCool.10 mph68%29.83 "HgN/A
2:00 PM58 °FCool.13 mph69%29.82 "HgN/A
1:00 PM57 °FCool.12 mph72%29.81 "HgN/A
12:00 PM57 °FCool.12 mph72%29.80 "HgN/A
11:00 AM56 °FCool.13 mph72%29.78 "HgN/A
10:00 AM57 °FCool.13 mph72%29.77 "HgN/A
9:00 AM55 °FCool.12 mph79%29.75 "HgN/A
8:00 AM52 °FCool.8 mph89%29.74 "HgN/A
7:00 AM51 °FCool.7 mph92%29.73 "HgN/A
6:00 AM51 °FCool.7 mph95%29.72 "HgN/A
5:00 AM49 °FCool.6 mph97%29.72 "HgN/A
Weather by CustomWeather, © 2014

See weather overviewHow to use our weather pages